Location: ?????
(55.8833°N, 37.6500°E)
Time: 18:13:10
(UTC+00:00)

Cosmos 2227 Rocket - Pass Details

Date: 27 February 2020
Orbit: 839 x 845 km, 71.0° (Epoch: 05 April)

Event Time Altitude Azimuth Distance (km) Brightness Sun altitude
Rises 18:14:11 0° 323° (NW) 3,408 6.3 -27.5°
Reaches altitude 10° 18:16:46 10° 316° (NW) 2,470 5.5 -27.8°
Maximum altitude 18:21:58 39° 250° (WSW) 1,254 3.3 -28.4°
Enters shadow 18:23:38 31° 213° (SSW) 1,429 3.3 -28.6°
